2020 BD
ephemeris date magn radius delta ra dec elong phase
Today4 Sep 202631.92.807 AU3.410 AU13h42m-09°22'46.1°15.0°
2020 BD - 2026-09-04
astro.vanbuitenen.nl


 
-1 year
-1 month
-1 day
Now
+1 day
+1 month
+1 year

The interactive orbit chart above shows the body's path through the solar system and its position at the given date. Green and blue lines are shown perpendicular to the ecliptic plane: Green if the path is above the ecliptic plane, blue if it is below. (Left-click and drag to rotate the view; Right-click and drag to move the view; Use scroll wheel to zoom in our out.)

The orbital elements of 2020 BD are:

            e (Eccentricity)                : 0.5683584
            a (Semimajor axis)              : 2.0464817
            i (Inclination)                 : 1.87883
            Ω (Longitude of ascending node) : 92.87373
            ω (Argument of perihelion)      : 336.33960
            M (Mean anomaly)                : 76.89198
            Epoch                           : 2026 Jun 09

            L (Longitude of perihelion)     : 69.22465
            B (Latitude of perihelion)      : -0.75389
            P (Orbital period in years)     : 2.93            
        

The light curve chart below shows the estimated development of the minor planet's magnitude.


The all-sky chart below shows the path of the minor planet over the same period as the light curve. The current position is marked yellow.





The following chart shows the path of the minor planet in the next few days. The field of view is optimized for (~10x50) binoculars and finderscopes.




Ephemerides:
Date       Time       RA (2000)    DEC (2000)    delta   radius  elong  phase   PA    magn
2026-09-04 00:00 UT   13 42 47.7   -09 22 01     3.410    2.807   46.1   15.0   110   31.9 
2026-09-04 18:58 UT   13 43 47.5   -09 27 58     3.421    2.810   45.6   14.9   110   31.9 
2026-09-05 00:00 UT   13 44 03.4   -09 29 32     3.424    2.811   45.5   14.8   110   31.9 
2026-09-06 00:00 UT   13 45 19.3   -09 37 03     3.438    2.814   44.8   14.6   110   31.9 
2026-09-07 00:00 UT   13 46 35.3   -09 44 34     3.452    2.818   44.2   14.4   110   32.0 
2026-09-08 00:00 UT   13 47 51.6   -09 52 03     3.465    2.822   43.6   14.2   110   32.0 
2026-09-09 00:00 UT   13 49 08.1   -09 59 32     3.478    2.825   42.9   14.1   109   32.0 
2026-09-10 00:00 UT   13 50 24.8   -10 07 00     3.492    2.829   42.3   13.9   109   32.0 
2026-09-11 00:00 UT   13 51 41.7   -10 14 28     3.505    2.833   41.7   13.7   109   32.0 
2026-09-12 00:00 UT   13 52 58.8   -10 21 54     3.518    2.836   41.0   13.5   109   32.0 
2026-09-13 00:00 UT   13 54 16.0   -10 29 20     3.530    2.840   40.4   13.3   109   32.0 
2026-09-14 00:00 UT   13 55 33.5   -10 36 45     3.543    2.844   39.8   13.1   109   32.0 
2026-09-15 00:00 UT   13 56 51.1   -10 44 09     3.556    2.847   39.1   12.9   109   32.0 
2026-09-16 00:00 UT   13 58 08.9   -10 51 31     3.568    2.851   38.5   12.7   109   32.0 
2026-09-17 00:00 UT   13 59 26.9   -10 58 53     3.580    2.854   37.9   12.5   109   32.0 
2026-09-18 00:00 UT   14 00 45.0   -11 06 14     3.592    2.858   37.2   12.3   109   32.0 
2026-09-19 00:00 UT   14 02 03.3   -11 13 33     3.604    2.861   36.6   12.1   109   32.0 
2026-09-20 00:00 UT   14 03 21.8   -11 20 52     3.616    2.865   36.0   11.9   108   32.0 
2026-09-21 00:00 UT   14 04 40.4   -11 28 09     3.628    2.868   35.3   11.7   108   32.0 
2026-09-22 00:00 UT   14 05 59.2   -11 35 25     3.639    2.872   34.7   11.5   108   32.0 
2026-09-23 00:00 UT   14 07 18.1   -11 42 40     3.651    2.875   34.1   11.3   108   32.0 
2026-09-24 00:00 UT   14 08 37.2   -11 49 53     3.662    2.879   33.4   11.1   108   32.0 
2026-09-25 00:00 UT   14 09 56.4   -11 57 05     3.673    2.882   32.8   10.9   108   32.0 
2026-09-26 00:00 UT   14 11 15.7   -12 04 16     3.684    2.885   32.2   10.7   108   32.0 
2026-09-27 00:00 UT   14 12 35.2   -12 11 25     3.695    2.889   31.5   10.5   108   32.0 
2026-09-28 00:00 UT   14 13 54.9   -12 18 33     3.706    2.892   30.9   10.3   108   32.0 


    Terminology:
            
    delta:  distance between minor planet and earth in AU
    radius: distance between minor planet and sun in AU
    magn:   magnitude (brightness) estimate    
    ra:     right ascension in hours (24h = 360deg)
    dec:    declination in degrees
    elong:  elongation in degrees (angle sun-earth-minor planet)    
    phase:  phase angle in degrees (angle sun-minor planet-earth)        
    AU:     Astronomical Unit (mean distance between earth and sun: 149597870.7 km
    

Orbital elements provided by the MPC (Minor Planet Center).
Calculations by a modified version of AAPlus, a C# implementation of the AA+ project by PJ Naughter from the algorithms presented in the book "Astronomical Algorithms" by Jean Meeus.
NGC2000 dso catalog and star labels from VizieR as provided by the Strasbourg astronomical Data Center.
Tycho2 catalog from the ESO archive.